Theta_e
334 324 321 320 310 312 309 312 316 315 317 323 318 322 324 329 327 326 353 356 354 359 363 363 364 365 365 365 364 363 363 361 361 362 362 360 360 363 363 363 363 363 362 362 362 361 360 360 358
325 319 317 316 306 305 309 315 312 318 318 318 318 320 325 325 335 344 350 355 358 361 363 361 364 364 365 365 364 363 362 362 362 362 362 360 360 362 363 363 363 362 361 361 361 360 359 358 357
323 318 311 307 306 305 308 315 315 318 317 316 316 326 328 331 338 343 355 358 359 360 361 362 363 363 364 364 364 363 363 363 362 362 361 360 360 361 362 362 362 361 360 359 359 358 358 357 357
318 314 311 304 304 310 312 315 316 316 317 317 320 315 321 343 342 347 358 358 358 357 357 361 362 363 363 363 363 363 363 362 361 361 360 360 361 361 361 361 360 361 359 357 357 356 357 357 356
317 312 303 301 303 309 313 315 317 315 315 316 316 314 318 338 345 354 358 356 355 355 355 361 361 362 362 363 362 362 361 360 360 360 360 361 361 361 361 361 360 359 359 357 356 355 357 357 356
309 310 301 299 303 307 311 314 315 315 317 318 316 317 320 343 347 354 357 355 354 354 355 356 360 360 360 361 361 360 359 358 359 359 360 360 361 361 361 361 360 359 359 359 357 357 357 357 357
307 305 301 302 303 305 308 313 311 313 315 316 320 315 325 339 349 356 356 355 353 354 354 355 355 359 360 359 359 358 358 358 358 359 359 360 360 360 360 360 360 359 359 359 357 356 356 356 355
310 307 302 303 302 303 309 310 312 311 312 320 320 315 318 340 349 356 354 353 352 353 352 352 352 351 352 354 359 358 358 358 359 359 359 359 359 359 359 358 359 358 357 357 357 356 355 354 354
313 303 301 302 303 304 309 308 312 314 312 315 318 320 328 338 351 352 351 351 350 350 351 350 347 347 347 347 353 357 358 359 359 359 358 355 352 355 357 354 356 356 355 356 356 355 354 352 353
306 303 303 308 308 307 308 308 309 309 310 311 314 323 337 342 346 347 348 347 347 347 349 348 347 347 346 344 350 349 348 349 349 352 356 349 351 351 347 354 356 355 354 354 354 353 352 352 350
308 302 308 309 308 309 307 308 310 308 308 312 312 316 332 338 343 344 347 349 348 349 349 348 350 350 347 344 347 343 343 343 346 351 354 352 351 352 349 351 351 351 354 348 349 350 348 347 347
303 307 308 309 309 307 306 309 307 308 309 314 315 317 319 333 336 342 347 349 349 350 350 350 350 352 352 347 347 344 341 342 343 347 354 351 350 352 348 345 346 349 347 348 348 346 347 348 347
304 306 308 309 309 308 309 307 307 308 312 313 314 315 315 318 329 337 342 352 352 350 351 351 352 355 354 354 349 348 345 343 344 347 352 350 348 350 349 347 345 346 346 347 346 344 345 343 343
306 306 307 308 308 309 307 308 309 310 313 312 313 313 314 315 318 326 337 342 353 353 353 353 353 357 354 355 357 351 351 349 345 346 349 351 349 352 350 350 347 346 345 343 343 342 343 346 347
304 300 303 304 305 305 307 302 304 310 313 312 314 315 315 315 317 319 323 339 346 355 356 355 355 356 357 355 355 353 352 350 348 347 349 350 351 353 353 349 348 347 347 346 345 347 351 351 351
303 303 298 304 305 306 305 298 305 310 310 310 312 314 315 317 318 320 322 325 345 351 356 357 354 355 356 357 356 353 352 351 351 351 352 350 350 350 351 344 344 345 347 346 343 343 348 349 348
300 295 297 300 306 305 304 300 306 309 309 310 313 313 314 316 319 322 322 325 340 350 356 356 358 355 356 358 356 357 360 353 352 352 352 355 352 349 349 343 344 347 342 341 341 343 349 346 348
294 295 297 296 302 304 303 302 306 309 309 310 312 313 314 315 317 321 323 329 338 350 356 360 359 361 360 356 357 354 353 353 353 353 352 355 354 352 352 347 348 349 342 340 341 346 347 348 347
298 296 295 298 302 301 300 302 304 308 309 309 311 312 314 316 319 321 323 328 338 351 355 360 359 363 359 354 352 351 349 352 351 354 356 356 355 355 356 350 351 351 345 346 352 351 352 347 352
297 295 295 298 301 300 299 299 303 305 306 307 308 311 313 315 318 320 322 324 337 349 355 358 359 362 360 356 356 352 352 352 352 352 356 356 356 356 356 354 351 352 344 348 352 355 347 352 359
296 295 295 295 299 301 299 296 299 304 307 308 309 310 312 313 315 318 320 323 328 345 353 356 359 363 362 361 358 354 354 351 349 349 351 355 356 356 356 356 352 352 349 341 352 354 355 352 355
292 299 297 295 293 290 299 289 298 302 303 306 308 309 310 311 314 317 319 322 326 336 351 355 359 362 361 363 356 355 347 344 346 348 349 352 356 356 356 356 355 354 347 347 350 355 354 348 344
291 298 296 297 293 294 294 291 296 301 300 304 307 309 310 312 312 314 317 321 323 330 341 352 357 359 362 360 358 354 351 347 347 346 355 358 356 355 354 356 356 355 350 353 346 337 334 331 334
295 295 296 297 294 287 293 292 293 297 300 304 308 309 310 311 312 314 316 320 322 326 335 347 353 356 357 357 357 357 350 349 343 346 345 347 349 350 353 355 357 359 348 340 341 341 333 333 330
295 291 285 283 284 285 295 291 295 300 303 305 306 308 311 312 312 313 314 316 321 323 330 343 350 353 355 355 355 353 354 355 353 351 346 346 345 347 354 357 358 353 348 344 337 337 332 335 336
292 291 284 279 280 286 294 288 295 303 305 307 308 309 310 312 313 313 315 317 319 322 327 338 346 350 352 350 353 354 355 349 348 351 349 346 349 351 359 358 351 349 343 342 342 340 338 337 338
291 288 294 285 290 284 290 295 300 302 303 304 306 308 310 312 313 314 315 317 320 322 325 336 342 347 350 349 353 356 354 354 351 355 358 353 360 356 358 353 348 345 345 344 342 338 337 335 337
293 295 287 290 279 280 287 290 291 297 300 304 304 306 310 313 314 315 316 318 320 322 324 334 342 347 351 352 356 356 354 353 355 356 356 357 353 355 354 353 348 344 344 343 344 340 338 336 331
292 290 291 291 290 284 284 287 301 301 303 304 307 310 311 313 313 316 318 320 321 323 321 326 336 342 347 350 353 353 353 353 355 355 354 353 355 355 353 349 346 342 341 342 340 338 335 331 327
293 288 292 285 286 290 290 290 304 304 305 307 308 308 311 313 314 316 317 319 321 322 324 322 330 336 341 346 348 351 354 353 355 350 351 354 353 352 348 346 343 342 339 338 335 328 326 323 322
Wind_Speed
9 8 5 6 8 8 13 9 8 8 7 3 2 5 5 8 6 5 3 14 18 21 21 21 17 19 20 20 21 21 20 19 18 17 17 18 18 17 16 15 14 14 14 13 13 12 11 12 12
4 5 6 4 10 15 13 14 13 8 5 3 7 7 8 8 0 6 11 11 20 20 20 21 17 19 20 21 21 21 20 19 18 17 17 18 18 16 15 14 13 13 14 13 12 12 12 11 12
7 8 7 7 13 19 16 11 11 11 2 5 4 3 5 2 3 3 7 18 22 21 21 20 18 18 19 20 20 20 19 20 19 19 18 17 17 16 14 13 12 13 13 13 12 12 13 12 11
7 7 6 13 21 21 22 4 7 13 9 4 1 6 3 4 1 2 16 22 22 22 22 23 19 19 18 19 19 19 19 19 19 19 18 17 16 15 14 13 12 11 13 13 12 12 12 12 11
7 5 12 18 25 24 18 14 11 13 7 8 3 6 6 5 0 8 18 19 21 22 20 22 19 20 19 18 18 19 18 18 18 18 18 17 15 14 13 13 12 11 11 12 12 12 11 11 11
9 7 14 20 23 23 21 13 15 17 15 15 10 13 4 4 4 10 17 19 20 19 19 21 18 18 19 19 18 18 18 18 17 17 17 17 15 14 13 12 12 11 11 12 12 11 11 9 9
17 12 19 23 22 23 20 14 17 20 19 18 11 12 1 6 6 11 16 18 19 19 19 19 20 18 17 17 18 18 17 17 17 16 16 16 15 14 13 12 12 11 11 10 11 11 10 9 8
11 12 24 23 20 24 17 16 16 19 22 19 11 11 14 11 8 13 16 18 19 19 19 19 19 19 19 16 16 17 16 16 15 16 15 15 14 14 13 11 11 12 11 11 11 10 9 8 7
14 12 19 26 23 18 8 17 16 10 16 10 13 11 9 6 13 15 17 18 18 18 20 20 19 19 18 18 15 16 18 16 16 16 15 14 11 13 14 9 14 11 11 10 10 9 8 7 8
16 17 23 20 16 15 16 14 13 9 16 17 15 8 3 9 12 15 18 19 22 22 22 20 20 19 18 14 17 15 15 14 14 14 14 12 11 11 10 11 11 11 10 9 8 8 7 9 9
15 27 17 15 11 16 20 19 11 15 18 11 17 17 7 8 10 13 16 18 21 20 18 20 19 19 19 15 13 9 10 10 11 14 13 11 9 8 8 7 8 8 9 8 9 9 9 11 5
20 21 22 21 11 15 19 16 18 17 22 17 12 11 3 9 9 11 14 17 20 21 21 20 20 18 17 12 12 12 11 11 10 12 14 9 7 9 8 7 9 7 8 8 8 7 6 5 7
24 22 19 15 19 20 19 20 19 21 18 15 18 16 16 15 12 11 11 14 18 21 21 21 21 19 16 14 13 12 12 11 12 12 14 10 10 9 8 7 7 7 7 7 7 5 6 7 7
10 12 21 21 21 20 21 22 20 18 19 22 22 23 23 22 18 15 13 14 18 20 22 21 22 20 19 14 14 12 11 12 12 11 12 13 10 9 9 8 8 7 7 7 6 6 6 7 6
15 19 19 19 17 16 12 24 30 25 24 19 16 17 23 25 24 22 19 17 17 18 21 22 22 21 19 18 15 12 12 12 12 11 14 15 13 11 10 8 8 7 6 6 5 5 6 6 6
13 19 21 18 23 22 16 27 3 2 16 26 27 22 16 19 22 20 18 19 18 18 22 23 20 23 21 18 15 12 12 11 11 11 11 15 14 12 11 9 8 7 6 7 6 7 7 7 6
18 19 22 18 15 15 23 19 19 9 8 12 14 19 21 22 19 16 17 21 20 20 21 22 22 23 23 18 15 13 13 11 11 10 10 14 14 13 10 8 8 7 7 6 7 7 7 6 6
18 23 19 21 15 18 21 20 18 12 9 10 10 10 12 18 20 15 15 17 19 19 21 22 20 20 21 16 14 13 12 12 11 11 11 14 13 14 11 8 8 7 7 7 8 8 6 6 6
21 23 22 21 12 17 17 20 18 17 15 18 17 15 15 15 14 12 11 15 17 18 21 21 21 20 17 16 16 13 11 13 12 11 14 14 13 14 12 9 9 7 7 7 7 7 8 6 4
23 24 24 21 18 18 19 25 23 22 22 22 22 21 19 19 18 16 14 13 16 19 21 19 23 22 19 16 14 13 14 13 11 12 10 13 14 13 12 10 9 10 8 8 8 6 6 2 2
23 23 23 23 19 19 19 25 24 24 25 23 24 24 25 23 21 19 16 13 15 19 21 20 22 23 22 19 14 12 12 11 12 13 12 13 15 15 13 12 9 9 8 8 7 5 5 4 3
25 23 24 21 19 17 20 19 18 14 18 21 23 24 26 27 25 22 19 15 15 17 19 22 20 22 22 21 17 20 15 14 12 11 10 12 15 14 13 11 10 8 7 4 3 3 8 8 5
16 21 15 20 23 20 24 18 15 17 18 20 20 21 22 25 25 26 23 19 16 17 18 20 21 20 21 21 19 16 17 13 11 11 12 11 13 14 13 11 10 8 6 8 15 11 10 6 4
17 18 17 19 15 18 25 23 18 16 19 19 18 17 19 21 22 23 22 19 17 17 18 19 22 21 22 22 22 20 18 14 12 13 11 11 11 11 13 13 11 10 14 11 11 13 10 8 5
15 11 6 8 12 15 21 20 19 20 22 18 15 15 15 18 18 18 20 19 18 18 20 17 21 22 21 23 23 22 18 15 13 14 11 12 11 11 13 14 13 12 13 13 10 8 8 9 7
16 15 9 10 6 14 21 10 17 16 15 20 22 16 14 14 14 16 16 16 20 19 20 22 23 22 20 18 20 20 20 14 12 12 11 11 11 11 14 11 15 17 16 13 13 10 9 8 5
9 17 18 11 18 8 7 13 16 14 13 15 13 15 16 12 11 10 11 11 13 15 19 21 21 22 22 19 15 20 18 17 15 14 11 12 10 12 17 19 17 17 15 15 15 10 7 4 6
19 8 6 9 6 7 11 16 9 8 6 7 10 13 11 10 10 11 11 13 8 9 12 18 20 22 23 22 23 21 19 18 14 14 14 16 16 18 19 19 19 17 15 12 11 9 7 7 5
6 14 9 7 12 11 12 3 12 5 8 5 6 6 4 1 6 7 8 10 11 9 11 14 18 21 21 22 22 19 17 19 17 15 15 18 19 19 20 20 19 16 14 11 9 8 8 8 7
6 3 15 7 14 14 16 6 10 4 3 4 4 5 7 8 8 8 8 8 11 12 10 11 15 18 19 19 19 18 19 20 15 16 19 20 20 20 19 18 17 15 12 12 11 11 10 9 8
Wind_Direction
236 224 230 233 242 231 246 233 271 215 203 72 343 281 304 337 299 358 87 171 153 154 155 162 154 148 151 153 152 149 148 150 153 153 151 150 150 147 142 139 137 138 141 140 135 131 129 128 128
196 188 206 252 244 238 231 224 218 199 93 330 279 258 249 253 170 106 134 154 154 149 155 162 154 150 151 153 152 149 148 150 153 152 154 153 149 147 142 139 139 143 143 141 139 136 135 137 139
232 233 244 228 236 240 242 195 241 228 264 252 270 277 323 50 113 141 111 159 155 155 158 151 156 152 152 154 150 149 149 151 154 155 155 152 148 146 143 143 144 147 148 147 145 143 143 145 146
191 192 233 245 238 232 246 251 243 243 224 208 279 259 219 29 11 178 146 159 155 160 160 142 157 152 154 153 150 150 151 153 153 154 153 150 149 146 145 146 147 152 151 150 148 149 150 149 153
212 248 241 230 244 249 237 261 202 237 254 213 198 258 276 91 172 134 160 163 165 160 160 156 158 154 154 155 155 154 154 153 152 153 152 149 148 146 146 146 148 151 150 151 153 153 154 158 163
201 255 236 239 240 240 249 217 253 238 243 243 264 253 264 112 170 158 164 167 166 159 155 156 158 157 157 158 159 158 156 153 153 153 151 149 147 147 147 149 152 155 156 156 159 160 161 165 169
239 214 241 249 252 243 232 216 238 240 244 244 237 268 24 160 136 162 168 168 162 160 159 159 169 163 160 161 160 159 156 155 153 152 149 146 146 145 150 154 154 153 156 160 164 169 169 172 178
234 254 250 244 249 252 250 238 234 239 243 248 258 247 239 124 159 159 171 169 165 166 162 166 169 174 172 173 165 159 157 152 150 147 145 145 144 147 152 149 153 152 159 170 174 175 178 177 188
241 236 237 238 233 247 237 253 234 246 262 198 207 261 24 128 158 165 168 173 174 176 166 170 172 171 178 171 170 160 157 154 148 147 146 149 170 172 160 176 144 163 171 179 181 180 180 189 206
215 231 241 254 259 248 258 232 245 234 236 238 223 174 136 160 173 177 181 183 183 181 174 173 175 172 177 171 165 179 168 177 176 174 171 182 168 182 186 139 153 171 178 179 186 186 188 216 216
217 243 248 251 281 261 259 255 234 247 250 224 226 218 182 182 190 195 195 195 190 184 182 178 178 174 178 175 168 176 175 177 180 182 180 195 172 168 181 159 172 177 181 187 190 189 215 218 253
245 245 247 264 273 243 250 260 254 250 248 264 233 279 188 213 204 211 208 197 193 189 188 183 180 179 186 176 177 174 178 176 180 185 185 179 188 175 184 179 181 185 170 196 198 198 221 230 238
235 252 253 241 261 255 268 257 263 257 257 255 267 262 252 244 233 218 220 214 197 196 193 191 183 183 187 184 182 182 182 180 182 179 185 182 193 185 184 182 192 187 183 185 199 221 207 218 233
266 265 260 255 250 254 255 262 253 246 250 250 247 250 252 250 239 235 216 217 207 202 195 195 190 184 186 192 184 182 187 180 181 180 182 191 200 182 188 185 202 196 195 200 206 199 215 227 240
258 262 253 242 236 242 255 258 247 247 247 239 242 246 243 241 240 234 232 213 216 208 199 197 195 187 190 189 187 189 186 183 186 185 183 197 201 183 208 197 202 202 200 214 220 210 222 241 237
248 246 252 242 234 234 229 258 257 119 224 239 239 236 233 237 241 240 227 232 210 214 203 197 195 189 193 187 185 193 187 193 190 189 182 195 195 193 202 202 204 202 210 205 217 223 230 239 248
240 254 248 239 226 243 216 258 243 239 266 247 236 232 240 246 237 232 233 221 207 204 202 199 197 196 191 190 183 195 188 202 197 194 191 190 196 195 206 209 202 203 212 215 225 227 243 250 264
246 238 236 258 248 211 244 240 259 205 226 239 247 244 250 248 242 233 216 235 207 198 202 194 195 199 188 188 192 192 192 199 199 197 201 190 201 196 197 202 209 198 214 209 219 239 229 267 292
279 280 276 276 265 271 263 273 267 262 248 256 251 246 243 244 250 236 238 250 210 196 199 195 192 190 183 192 193 193 201 193 202 201 202 200 201 194 190 210 186 206 218 233 200 227 226 256 247
262 260 258 261 260 261 265 265 259 253 255 252 255 252 249 249 241 239 228 232 225 198 200 194 195 188 191 193 194 195 190 201 186 208 194 204 196 194 195 210 190 194 206 207 221 230 255 256 347
259 253 258 260 259 246 261 266 261 257 257 252 248 249 252 247 244 236 233 217 233 205 200 197 200 191 190 196 185 190 194 205 197 204 195 195 194 197 200 195 212 186 227 191 209 222 242 287 9
249 254 264 263 255 259 251 268 263 259 252 236 238 235 238 243 240 239 229 225 218 219 201 203 199 197 192 193 185 191 194 195 200 200 192 186 196 194 189 196 196 195 203 203 158 22 25 11 19
266 263 272 258 262 256 251 251 261 253 255 249 245 238 239 238 236 237 228 217 215 216 208 200 200 200 196 192 196 188 196 194 183 196 181 198 181 189 185 188 177 172 193 100 85 77 68 61 86
264 270 270 269 261 244 239 250 253 256 250 241 242 246 235 235 235 238 239 225 213 212 206 193 202 199 197 195 198 197 192 191 185 186 177 183 171 179 181 168 161 147 105 111 116 116 132 153 111
238 246 250 235 223 236 221 228 245 249 251 253 257 257 245 241 233 232 230 226 215 200 206 182 200 202 193 199 199 203 199 195 174 173 185 172 172 177 166 159 156 129 136 134 128 141 149 152 184
279 233 253 252 288 239 226 218 234 240 257 255 253 255 272 254 231 221 230 232 225 200 208 196 190 198 194 192 201 205 199 191 181 175 168 166 175 160 153 143 131 139 139 144 149 155 178 176 194
270 230 241 270 277 252 230 232 249 248 245 252 247 235 240 235 250 247 242 229 239 210 204 201 192 198 187 182 191 215 199 199 185 180 176 166 159 140 149 148 147 148 156 161 168 179 169 144 152
238 250 234 219 257 220 234 250 253 164 240 334 229 228 238 238 257 256 239 243 220 225 205 209 194 190 190 189 186 209 193 190 178 177 180 136 146 152 158 159 159 159 164 170 170 159 153 132 146
254 227 226 284 271 267 242 113 61 40 319 131 65 69 75 320 312 285 248 245 236 217 208 208 204 191 188 188 192 193 183 185 178 172 141 150 158 159 159 161 164 163 152 164 146 150 141 144 134
265 260 275 233 237 245 285 270 119 97 24 31 85 27 349 323 312 311 293 268 250 231 213 200 211 205 191 185 186 186 180 177 164 144 151 159 158 157 159 162 163 156 148 146 145 135 141 141 126